Regional Weather Roundup
Issued by NWS

Home | Current Version | Previous Version | Graphics & Text | Print | Product List | Glossary Off
Versions: 1 2 3 4 5 6 7 8 9 10 11 12 13 14 15 16 17 18 19 20 21 22 23 24 25 26 27 28 29 30 31 32 33 34 35 36 37 38 39 40 41 42 43 44 45 46 47 48 49 50

000
ASUS43 KDMX 061307
RWRIA

WEATHER ROUNDUP FOR IOWA
NATIONAL WEATHER SERVICE DES MOINES IA
700 AM CST FRI MAR 06 2015

NOTE: "FAIR" INDICATES FEW OR NO CLOUDS BELOW 12,000 FEET WITH NO
SIGNIFICANT WEATHER AND/OR OBSTRUCTIONS TO VISIBILITY.

* - THESE STATIONS ARE NOT NWS STATIONS...THUS NOT UNDER NWS
QUALITY CONTROL.  THEY ALSO DO NOT REPORT WEATHER SUCH
AS PRECIPITATION OR FOG.

IAZ001>003-012>014-020>022-031>034-043>046-061400-
   NORTHWEST IOWA

CITY           SKY/WX    TMP DP  RH WIND       PRES   REMARKS
CARROLL *      CLEAR     23  14  68 SW8       30.15S WCI  14
CHEROKEE *       N/A     14  10  85 CALM      30.13F
DENISON *      CLEAR     21  14  73 S6        30.14S WCI  14
LE MARS *      PTCLDY    18  12  79 S5        30.14S WCI  11
ORANGE CITY *  CLEAR     18  10  73 CALM      30.11S
SHELDON *      PTCLDY    16  10  79 SW6       30.10S WCI   7
SIOUX CITY     CLEAR     15   8  73 E6        30.15S WCI   6
SPENCER        CLEAR     14   7  73 SW7       30.11F WCI   4
STORM LAKE *   CLEAR     19  12  73 SW16      30.11F WCI   5
$$

IAZ055>058-069>071-079>083-090>094-061400-
   SOUTHWEST IOWA

CITY           SKY/WX    TMP DP  RH WIND       PRES   REMARKS
ATLANTIC *     CLEAR     18  14  86 SW6       30.18S WCI   9
AUDUBON *      CLEAR     21  14  73 S5        30.16F WCI  15
CLARINDA *     CLEAR     19  16  86 S6        30.23S WCI  11
COUNCIL BLFS * CLEAR     23  16  74 SW8       30.17S WCI  14
CRESTON *      CLEAR     19  14  79 S13       30.19F WCI   7
HARLAN  *      CLEAR     18  16  93 CALM      30.21S
LAMONI         CLEAR     21  12  68 S10       30.22F WCI  10
RED OAK *      MOCLDY    21  16  79 S9        30.20F WCI  11
SHENANDOAH *   CLEAR     23  18  80 SW5       30.22S WCI  17
$$

IAZ047>049-059>061-072>074-084-061400-
   CENTRAL IOWA

CITY           SKY/WX    TMP DP  RH WIND       PRES   REMARKS
AMES           PTCLDY    16  10  77 S5        30.19F WCI   9
ANKENY *       CLEAR     23  12  63 S13       30.20F WCI  11
CHARITON *     CLEAR     21  12  68 S14       30.21F WCI   8
DES MOINES     PTCLDY    22  12  65 S12       30.20F WCI  10
GRINNELL*      PTCLDY    16  10  79 S13       30.21F WCI   2
KNOXVILLE *    CLEAR     23  10  58 S13G20    30.21S WCI  11
MARSHALLTOWN   PTCLDY    16   8  71 S10       30.19F WCI   4
PELLA *        CLEAR     23  16  74 SW12      30.24F WCI  12
PERRY *          N/A     21  16  79 S8        30.18S WCI  12
$$

IAZ004>006-015-016-023>025-035-036-061400-
   NORTH CENTRAL IOWA

CITY           SKY/WX    TMP DP  RH WIND       PRES   REMARKS
ALGONA *       PTCLDY    14  10  85 S14       30.12F WCI  -1
CLARION *      CLEAR     14   9  79 S12       30.14F WCI   0
ESTHERVILLE    PTCLDY    17   9  70 SW10      30.09S WCI   5
FORT DODGE *   PTCLDY    18  10  73 S10       30.15F WCI   6
MASON CITY     PTCLDY    11   5  77 S9        30.14F WCI  -2
FOREST CITY *  CLEAR     14   7  73 S7        30.12F WCI   4
IOWA FALLS *     N/A     14   9  79 S8        30.17F HAZE    WCI   3
$$

IAZ007>011-017>019-026>030-037>042-050>054-066-061400-
   NORTHEAST IOWA

CITY           SKY/WX    TMP DP  RH WIND       PRES   REMARKS
CEDAR RAPIDS   MOCLDY    11   5  77 S13       30.24F WCI  -4
CHARLES CITY * CLEAR     10   3  72 S15       30.17F WCI  -6
CLINTON *      MOCLDY     7   0  72 SE14      30.36F WCI -10
DECORAH *      PTCLDY    12   3  67 S8G14     30.18S WCI   1
DUBUQUE        CLOUDY     4  -2  76 S16       30.25F WCI -15
MONTICELLO *   CLOUDY     7   0  72 SE12      30.28F WCI  -9
OELWEIN *      MOCLDY    10   3  72 S16       30.21F WCI  -7
WATERLOO       PTCLDY    11   5  77 S7        30.20F WCI   0
$$

IAZ064-065-067-068-078-061400-
   EAST CENTRAL IOWA

CITY           SKY/WX    TMP DP  RH WIND       PRES   REMARKS
DAVENPORT      CLEAR      9   0  67 S17       30.34F WCI  -9
IOWA CITY      PTCLDY    11   4  73 SE8       30.31F WCI  -1
MT. PLEASANT * PTCLDY    12   5  73 S13G20    30.33F WCI  -3
MUSCATINE *    MOCLDY    10   3  72 S9        30.36F WCI  -2
QUAD CITIES    CLEAR      9   0  67 S12       30.36F WCI  -6
$$

IAZ062-063-075>077-085>089-095>099-061400-
   SOUTHEAST IOWA

CITY           SKY/WX    TMP DP  RH WIND       PRES   REMARKS
BURLINGTON     PTCLDY    11   4  73 S15       30.36F WCI  -5
FAIRFIELD *    CLOUDY    16   7  67 S16G22    30.28F WCI   0
FORT MADISON * CLEAR     10   3  72 S13       30.36F WCI  -5
KEOKUK *       CLOUDY    16   7  67 S9        30.36F WCI   4
OSKALOOSA *    CLOUDY    18  10  73 S15       30.25F WCI   3
CENTERVILLE *  CLEAR     21  12  68 S12       30.26F WCI   9
OTTUMWA        CLOUDY    18   9  68 S20       30.23F WCI   2
WASHINGTON *   MOCLDY    14   9  79 S18       30.29F WCI  -3
$$

ABBREVIATIONS USED IN REMARKS
   TC - TEMPERATURES IN CELSIUS
  WCI - WIND CHILL INDEX
   HX - HEAT INDEX
  VSB - VISIBILITY
$$



USA.gov is the U.S. government's official web portal to all federal, state and local government web resources and services.